Date String (YYYY-MM-DD hh:mm:ss) UTC,Instrument flags,Ambient pressure (hPa),Sample flow (lpm),Bypass flow (lpm),Sample temperature (°C),Ambient temperature (°C),ASC tube jacket temperature (°C),LED temperature (°C),Box temperature (°C),Sample RH (%),Span deviation,Mass concentration (μg/m³),Mass concentration (μg/m³),Mass concentration (μg/m³)
DateTimeUTC,F1_M11,P_M11,Q1_M11,Q2_M11,T1_M11,T2_M11,T3_M11,T4_M11,T5_M11,U1_M11,ZSPAN_M11,X0_M11,X2_M11,X1_M11
2021-10-13 15:00:00,,0815.5,4.99,0.00,21.6,20.9,00.0,30.8,23.3,16.9,0000.0,0004.56,0001.08,0000.59
2021-10-13 15:01:00,,0815.7,5.01,0.00,21.6,20.9,00.0,30.8,23.3,17.1,0000.0,0005.00,0001.07,0000.59
2021-10-13 15:02:00,,0815.5,4.98,0.00,21.6,20.9,00.0,30.8,23.3,16.8,0000.0,0005.11,0001.15,0000.61
2021-10-13 15:03:00,,0815.5,5.01,0.00,21.6,20.9,00.0,30.8,23.3,16.8,0000.0,0005.40,0001.23,0000.62
2021-10-13 15:04:00,,0815.4,5.00,0.00,21.6,20.9,00.0,30.8,23.3,16.6,0000.0,0006.38,0001.25,0000.61
2021-10-13 15:05:00,,0815.4,5.00,0.00,21.5,20.9,00.0,30.8,23.2,16.8,0000.0,0006.99,0001.29,0000.62
2021-10-13 15:06:00,,0815.6,5.01,0.00,21.5,20.9,00.0,30.8,23.3,17.1,0000.0,0006.79,0001.28,0000.61
2021-10-13 15:07:00,,0815.9,4.99,0.00,21.5,20.9,00.0,30.7,23.2,17.1,0000.0,0005.66,0001.29,0000.60
2021-10-13 15:08:00,,0815.8,5.01,0.00,21.5,20.9,00.0,30.7,23.2,17.1,0000.0,0005.86,0001.34,0000.59
2021-10-13 15:09:00,,0815.7,5.00,0.00,21.5,20.9,00.0,30.7,23.3,17.0,0000.0,0006.20,0001.40,0000.57
2021-10-13 15:10:00,,0815.9,4.99,0.00,21.5,20.9,00.0,30.7,23.3,17.0,0000.0,0006.36,0001.40,0000.57
2021-10-13 15:11:00,,0815.9,5.01,0.00,21.5,21.0,00.0,30.7,23.3,17.0,0000.0,0006.45,0001.36,0000.57
2021-10-13 15:12:00,,0815.8,5.00,0.00,21.6,21.0,00.0,30.7,23.3,16.5,0000.0,0005.93,0001.37,0000.57
2021-10-13 15:13:00,,0815.8,5.00,0.00,21.6,21.0,00.0,30.7,23.3,17.0,0000.0,0005.75,0001.32,0000.57
2021-10-13 15:14:00,,0815.9,4.99,0.00,21.5,21.0,00.0,30.7,23.3,16.5,0000.0,0005.57,0001.29,0000.57
2021-10-13 15:15:00,,0815.8,4.99,0.00,21.5,20.9,00.0,30.7,23.2,16.3,0000.0,0004.78,0001.35,0000.57
2021-10-13 15:16:00,,0815.9,5.01,0.00,21.5,20.9,00.0,30.7,23.2,16.7,0000.0,0004.32,0001.37,0000.58
2021-10-13 15:17:00,,0816.0,4.99,0.00,21.5,20.9,00.0,30.7,23.2,16.8,0000.0,0004.27,0001.34,0000.59
2021-10-13 15:18:00,,0816.0,5.00,0.00,21.5,20.9,00.0,30.7,23.2,16.7,0000.0,0004.21,0001.31,0000.60
2021-10-13 15:19:00,,0815.7,5.00,0.00,21.5,21.0,00.0,30.7,23.3,16.8,0000.0,0004.17,0001.31,0000.60
2021-10-13 15:20:00,,0815.8,5.00,0.00,21.5,21.0,00.0,30.7,23.3,16.3,0000.0,0003.97,0001.28,0000.61
2021-10-13 15:21:00,,0815.9,4.99,0.00,21.6,21.0,00.0,30.7,23.3,16.1,0000.0,0004.00,0001.33,0000.61
2021-10-13 15:22:00,,0815.8,5.01,0.00,21.6,21.0,00.0,30.7,23.4,15.9,0000.0,0003.35,0001.43,0000.62
2021-10-13 15:23:00,,0815.8,4.99,0.00,21.6,21.1,00.0,30.7,23.4,16.3,0000.0,0003.28,0001.45,0000.62
2021-10-13 15:24:00,,0815.9,5.01,0.00,21.7,21.1,00.0,30.7,23.5,16.2,0000.0,0003.26,0001.45,0000.61
2021-10-13 15:25:00,,0815.8,4.99,0.00,21.7,21.2,00.0,30.7,23.5,15.8,0000.0,0003.44,0001.44,0000.61
2021-10-13 15:26:00,,0815.8,5.00,0.00,21.7,21.2,00.0,30.7,23.5,16.0,0000.0,0004.07,0001.39,0000.60
2021-10-13 15:27:00,,0815.8,5.00,0.00,21.7,21.3,00.0,30.8,23.6,14.5,0000.0,0004.28,0001.37,0000.60
2021-10-13 15:28:00,,0815.8,5.00,0.00,21.8,21.3,00.0,30.8,23.6,13.8,0000.0,0004.49,0001.40,0000.58
2021-10-13 15:29:00,,0815.7,5.00,0.00,21.8,21.3,00.0,30.8,23.6,13.1,0000.0,0004.43,0001.37,0000.56
2021-10-13 15:30:00,,0816.0,4.99,0.00,21.8,21.3,00.0,30.8,23.6,12.8,0000.0,0004.18,0001.28,0000.55
2021-10-13 15:31:00,,0816.0,5.01,0.00,21.9,21.4,00.0,30.8,23.7,12.9,0000.0,0004.38,0001.21,0000.54
2021-10-13 15:32:00,,0815.7,4.99,0.00,21.9,21.4,00.0,30.8,23.7,12.9,0000.0,0004.47,0001.14,0000.53
2021-10-13 15:33:00,,0815.8,5.01,0.00,21.9,21.4,00.0,30.9,23.7,13.3,0000.0,0004.08,0001.01,0000.51
2021-10-13 15:34:00,,0815.9,5.00,0.00,21.9,21.4,00.0,30.9,23.7,14.9,0000.0,0003.91,0000.96,0000.51
2021-10-13 15:35:00,,0815.8,4.99,0.00,21.9,21.4,00.0,30.9,23.8,16.4,0000.0,0004.18,0000.95,0000.52
2021-10-13 15:36:00,,0815.8,5.00,0.00,21.9,21.4,00.0,30.9,23.8,16.8,0000.0,0004.19,0000.96,0000.53
2021-10-13 15:37:00,,0816.0,5.02,0.00,21.9,21.4,00.0,30.9,23.7,17.2,0000.0,0004.00,0001.04,0000.55
2021-10-13 15:38:00,,0816.0,4.99,0.00,21.9,21.4,00.0,31.0,23.7,17.1,0000.0,0003.70,0001.04,0000.57
2021-10-13 15:39:00,,0815.7,5.00,0.00,21.9,21.4,00.0,31.0,23.7,16.9,0000.0,0003.44,0000.99,0000.58
2021-10-13 15:40:00,,0815.9,5.00,0.00,21.9,21.4,00.0,31.0,23.7,16.4,0000.0,0004.65,0001.04,0000.61
2021-10-13 15:41:00,,0816.0,4.99,0.00,21.9,21.4,00.0,31.0,23.7,17.2,0000.0,0004.82,0001.11,0000.62
2021-10-13 15:42:00,,0815.9,5.00,0.00,21.9,21.4,00.0,31.0,23.7,18.0,0000.0,0004.48,0001.18,0000.65
2021-10-13 15:43:00,,0815.8,5.00,0.00,21.9,21.4,00.0,31.0,23.7,17.4,0000.0,0004.63,0001.28,0000.67
2021-10-13 15:44:00,,0815.9,5.01,0.00,21.9,21.4,00.0,31.0,23.7,17.3,0000.0,0004.98,0001.37,0000.70
2021-10-13 15:45:00,,0816.0,5.00,0.00,21.9,21.4,00.0,31.0,23.7,17.9,0000.0,0005.16,0001.39,0000.71
2021-10-13 15:46:00,,0816.0,4.99,0.00,21.9,21.4,00.0,31.0,23.7,18.6,0000.0,0005.16,0001.44,0000.72
2021-10-13 15:47:00,,0816.0,5.00,0.00,21.9,21.4,00.0,31.0,23.6,17.9,0000.0,0005.02,0001.44,0000.72
2021-10-13 15:48:00,,0816.0,5.01,0.00,21.9,21.3,00.0,31.0,23.7,17.8,0000.0,0005.17,0001.40,0000.72
2021-10-13 15:49:00,,0816.0,5.01,0.00,21.9,21.3,00.0,31.0,23.7,18.3,0000.0,0006.18,0001.42,0000.72
2021-10-13 15:50:00,,0816.0,4.98,0.00,21.9,21.3,00.0,31.0,23.7,17.9,0000.0,0006.44,0001.48,0000.72
2021-10-13 15:51:00,,0816.0,5.00,0.00,21.9,21.4,00.0,31.0,23.7,18.1,0000.0,0005.41,0001.50,0000.72
2021-10-13 15:52:00,,0816.0,5.01,0.00,21.9,21.4,00.0,31.0,23.7,18.4,0000.0,0006.69,0001.50,0000.73
2021-10-13 15:53:00,,0816.1,4.99,0.00,21.9,21.4,00.0,31.0,23.7,19.0,0000.0,0006.88,0001.50,0000.73
2021-10-13 15:54:00,,0816.0,5.01,0.00,21.9,21.4,00.0,31.0,23.7,18.4,0000.0,0007.64,0001.48,0000.74
2021-10-13 15:55:00,,0816.1,4.99,0.00,21.9,21.4,00.0,31.0,23.7,18.6,0000.0,0008.05,0001.53,0000.75
2021-10-13 15:56:00,,0816.1,5.01,0.00,21.9,21.4,00.0,31.0,23.7,18.2,0000.0,0008.12,0001.60,0000.76
2021-10-13 15:57:00,,0816.1,4.98,0.00,21.9,21.4,00.0,31.0,23.8,18.5,0000.0,0008.14,0001.60,0000.77
2021-10-13 15:58:00,,0816.2,5.01,0.00,21.9,21.4,00.0,31.0,23.7,18.5,0000.0,0008.09,0001.55,0000.78
2021-10-13 15:59:00,,0816.3,5.00,0.00,21.9,21.4,00.0,31.0,23.7,18.3,0000.0,0007.72,0001.57,0000.78
